EW0920 Weather Reports


time (UTC)temp
C
wind
direction
speed
KPH
gust
KPH
rain 1hr
cm
rain 24hr
cm
rain mn
cm
humidity
%
barometer
mb
20260508111530 1 353 0.0 0.0 0.00 0.00 0.00 99 1017.8
20260508111027 1 353 0.0 0.0 0.00 0.00 0.00 99 1017.8
20260508110525 1 353 0.0 0.0 0.00 0.00 0.00 99 1017.7
20260508110021 1 353 0.0 0.0 0.00 0.00 0.00 99 1017.6
20260508105516 1 353 0.0 0.0 0.00 0.00 0.00 99 1017.7
20260508105013 1 353 0.0 0.0 0.00 0.00 0.00 99 1017.8
20260508104511 1 352 0.0 0.0 0.00 0.00 0.00 99 1017.6
20260508104007 1 352 0.0 0.0 0.00 0.00 0.00 99 1017.6
20260508103504 1 352 0.0 0.0 0.00 0.00 0.00 99 1017.4
20260508103001 0 352 0.0 0.0 0.00 0.00 0.00 98 1017.4
20260508102459 1 352 0.0 0.0 0.00 0.00 0.00 98 1017.7
20260508101956 1 352 0.0 0.0 0.00 0.00 0.00 98 1017.4
20260508101454 1 352 0.0 0.0 0.00 0.00 0.00 98 1017.5
20260508100951 1 352 0.0 0.0 0.00 0.00 0.00 98 1017.5
20260508100450 1 353 0.0 0.0 0.00 0.00 0.00 98 1017.4
20260508095945 1 352 0.0 0.0 0.00 0.00 0.00 98 1017.4
20260508095443 1 353 0.0 0.0 0.00 0.00 0.00 98 1017.4
20260508094940 1 353 0.0 0.0 0.00 0.00 0.00 98 1017.3
20260508094436 1 353 0.0 0.0 0.00 0.00 0.00 98 1017.2
20260508093933 1 353 0.0 0.0 0.00 0.00 0.00 98 1017.3
20260508093431 1 353 0.0 0.0 0.00 0.00 0.00 98 1017.2
20260508092928 1 353 0.0 0.0 0.00 0.00 0.00 98 1017.3
20260508092426 1 353 0.0 0.0 0.00 0.00 0.00 98 1017.1
20260508091924 1 353 0.0 0.0 0.00 0.00 0.00 98 1017.3
20260508091421 1 353 0.0 0.0 0.00 0.00 0.00 98 1017.2
20260508090918 1 353 0.0 0.0 0.00 0.00 0.00 98 1017.1
20260508090417 1 353 0.0 0.0 0.00 0.00 0.00 98 1017.2
20260508085912 1 353 0.0 0.0 0.00 0.00 0.00 98 1017.2
20260508085409 1 353 0.0 0.0 0.00 0.00 0.00 98 1017.3
20260508084906 1 353 0.0 0.0 0.00 0.00 0.00 98 1017.2
20260508084402 1 353 0.0 0.0 0.00 0.00 0.00 98 1017.1
20260508083900 1 353 0.0 0.0 0.00 0.00 0.00 98 1017.0
20260508083358 1 353 0.0 0.0 0.00 0.00 0.00 98 1017.0
20260508082857 1 353 0.0 0.0 0.00 0.00 0.00 98 1017.0
20260508082355 1 353 0.0 0.0 0.00 0.00 0.00 98 1017.2
20260508081852 1 353 0.0 0.0 0.00 0.00 0.00 98 1017.0
20260508081348 1 353 0.0 0.0 0.00 0.00 0.00 98 1017.0
20260508080846 1 353 0.0 0.0 0.00 0.00 0.00 98 1017.0
20260508080344 1 353 0.0 0.0 0.00 0.00 0.00 98 1017.0
20260508075840 1 353 0.0 0.0 0.00 0.00 0.00 98 1017.0
20260508075337 1 353 0.0 0.0 0.00 0.00 0.00 98 1016.8
20260508074835 2 353 0.0 0.0 0.00 0.00 0.00 98 1017.1
20260508074332 2 353 0.0 0.0 0.00 0.00 0.00 98 1016.8
20260508073828 2 353 0.0 0.0 0.00 0.00 0.00 98 1016.7
20260508073327 2 353 0.0 0.0 0.00 0.00 0.00 98 1016.8
20260508072822 2 350 0.0 0.0 0.00 0.00 0.00 98 1017.1
20260508072319 2 350 0.0 0.0 0.00 0.00 0.00 98 1017.1
20260508071817 2 350 0.0 0.0 0.00 0.00 0.00 98 1017.0
20260508071315 2 347 0.0 0.0 0.00 0.00 0.00 98 1017.1
20260508070812 2 343 0.0 0.0 0.00 0.00 0.00 98 1017.0
20260508070311 2 0 0.0 0.0 0.00 0.00 0.00 97 1017.1
20260508065807 2 12 0.0 0.0 0.00 0.00 0.00 97 1016.7
20260508065307 2 352 0.0 0.0 0.00 0.00 0.00 97 1017.1
20260508064803 2 352 0.0 0.0 0.00 0.00 0.00 97 1017.2
20260508064301 2 358 0.0 0.0 0.00 0.00 0.00 97 1017.2
20260508063758 2 359 0.0 0.0 0.00 0.00 0.00 97 1017.3
20260508063256 2 359 0.0 0.0 0.00 0.00 0.00 97 1017.1
20260508062753 2 359 0.0 0.0 0.00 0.00 0.00 97 1017.3
20260508062250 2 1 0.0 0.0 0.00 0.00 0.00 97 1017.1
20260508061747 2 0 0.0 0.0 0.00 0.00 0.00 97 1017.1
20260508061244 2 0 0.0 0.0 0.00 0.00 0.00 97 1017.1
20260508060741 2 357 0.0 0.0 0.00 0.00 0.00 97 1017.0
20260508060239 2 357 0.0 0.0 0.00 0.00 0.00 97 1017.2
20260508055734 2 356 0.0 0.0 0.00 0.00 0.00 97 1017.1
20260508055231 2 7 0.0 0.0 0.00 0.00 0.00 96 1017.3
20260508054727 2 9 0.0 0.0 0.00 0.00 0.00 96 1017.3
20260508054226 2 7 0.0 0.0 0.00 0.00 0.00 96 1017.4
20260508053722 3 350 0.0 0.0 0.00 0.00 0.00 96 1017.4
20260508053220 3 356 0.0 0.0 0.00 0.00 0.00 96 1017.4
20260508052717 3 353 0.0 0.0 0.00 0.00 0.00 96 1017.4
20260508052214 3 353 0.0 0.0 0.00 0.00 0.00 96 1017.5
20260508051710 3 352 0.0 0.0 0.00 0.00 0.00 96 1017.4
20260508051205 3 352 0.0 0.0 0.00 0.00 0.00 95 1017.4
20260508050702 3 352 0.0 0.0 0.00 0.00 0.00 95 1017.6
20260508050200 3 352 0.0 0.0 0.00 0.00 0.00 95 1017.6
20260508045654 3 5 0.0 0.0 0.00 0.00 0.00 94 1017.3
20260508045153 3 7 0.0 0.0 0.00 0.00 0.00 94 1017.5
20260508044650 3 8 0.0 0.0 0.00 0.00 0.00 94 1017.4
20260508044146 3 8 0.0 0.0 0.00 0.00 0.00 94 1017.3
20260508043642 3 8 0.0 0.0 0.00 0.00 0.00 94 1017.5
20260508043140 3 359 0.0 0.0 0.00 0.00 0.00 94 1017.6
20260508042637 3 359 0.0 0.0 0.00 0.00 0.00 94 1017.4
20260508042134 3 0 0.0 0.0 0.00 0.00 0.00 93 1017.4
20260508041630 3 13 0.0 0.0 0.00 0.00 0.00 93 1017.1
20260508041127 3 15 0.0 0.0 0.00 0.00 0.00 93 1017.3
20260508040624 4 350 0.0 0.0 0.00 0.00 0.00 92 1017.3
20260508040121 4 349 0.0 0.0 0.00 0.00 0.00 92 1017.4
20260508035618 4 353 0.0 0.0 0.00 0.00 0.00 92 1017.5
20260508035116 4 354 0.0 0.0 0.00 0.00 0.00 91 1017.3
20260508034612 4 356 0.0 0.0 0.00 0.00 0.00 90 1017.2
20260508034109 4 350 0.0 0.0 0.00 0.00 0.00 90 1017.3
20260508033607 5 351 0.0 0.0 0.00 0.00 0.00 90 1017.2
20260508033105 5 1 0.0 0.0 0.00 0.00 0.00 89 1017.2
20260508032601 5 356 0.0 0.0 0.00 0.00 0.00 88 1017.0
20260508032059 5 356 0.0 0.0 0.00 0.00 0.00 88 1017.2
20260508031556 5 359 0.0 0.0 0.00 0.00 0.00 87 1017.3
20260508031052 5 0 0.0 0.0 0.00 0.00 0.00 87 1017.2
20260508030548 5 1 0.0 0.0 0.00 0.00 0.00 86 1017.3
20260508030047 5 356 0.0 0.0 0.00 0.00 0.00 86 1017.1
20260508025542 5 357 0.0 0.0 0.00 0.00 0.00 85 1017.3
20260508025039 5 352 0.0 0.0 0.00 0.00 0.00 85 1017.2
20260508024535 5 352 0.0 0.0 0.00 0.00 0.00 84 1017.1
20260508024033 6 352 0.0 0.0 0.00 0.00 0.00 83 1017.1
20260508023529 6 352 0.0 0.0 0.00 0.00 0.00 82 1017.1
20260508023027 6 352 0.0 0.0 0.00 0.00 0.00 81 1017.2
20260508022522 6 352 0.0 0.0 0.00 0.00 0.00 80 1017.3
20260508022019 6 349 0.0 0.0 0.00 0.00 0.00 79 1017.1
20260508021515 6 349 0.0 0.0 0.00 0.00 0.00 78 1017.1
20260508021011 6 349 0.0 0.0 0.00 0.00 0.00 77 1017.0
20260508020509 6 349 0.0 0.0 0.00 0.00 0.00 76 1017.1
20260508020007 7 349 0.0 0.0 0.00 0.00 0.00 75 1017.0
20260508015504 7 349 0.0 0.0 0.00 0.00 0.00 74 1017.1
20260508015001 7 349 0.0 0.0 0.00 0.00 0.00 73 1017.2
20260508014457 7 349 0.0 0.0 0.00 0.00 0.00 74 1016.8
20260508013953 7 349 0.0 0.0 0.00 0.00 0.00 74 1016.7
20260508013449 7 349 0.0 0.0 0.00 0.00 0.00 73 1016.7
20260508012947 7 349 0.0 0.0 0.00 0.00 0.00 71 1016.7
20260508012444 8 349 0.0 0.0 0.00 0.00 0.00 70 1016.6
20260508011941 8 348 0.0 0.0 0.00 0.00 0.00 68 1016.6
20260508011439 8 347 0.0 0.0 0.00 0.00 0.00 68 1016.4
20260508010936 8 348 0.0 0.0 0.00 0.00 0.00 66 1016.2
20260508010433 8 348 0.0 0.0 0.00 0.00 0.00 66 1016.3
20260508005930 9 356 0.0 0.0 0.00 0.00 0.00 64 1016.2
20260508005427 9 356 0.0 0.0 0.00 0.00 0.00 62 1016.1
20260508004923 10 356 0.0 0.0 0.00 0.00 0.00 62 1016.3
20260508004420 10 356 0.0 0.0 0.00 0.00 0.00 61 1016.1
20260508003916 10 2 0.0 0.0 0.00 0.00 0.00 59 1016.2
20260508003413 11 2 0.0 0.0 0.00 0.00 0.00 58 1016.0
20260508002911 11 2 0.0 0.0 0.00 0.00 0.00 57 1016.2
20260508002407 11 7 0.0 0.0 0.00 0.00 0.00 56 1015.9
20260508001903 11 4 0.0 0.0 0.00 0.00 0.00 58 1015.9
20260508001359 12 4 0.0 0.0 0.00 0.00 0.00 55 1015.8
20260508000856 12 6 0.0 0.0 0.00 0.00 0.00 58 1015.8
20260508000352 12 2 0.0 0.0 0.00 0.00 0.00 52 1015.7
20260507235849 12 5 0.0 0.0 0.00 0.00 0.00 53 1015.6
20260507235346 13 356 0.0 0.0 0.00 0.00 0.00 47 1015.6
20260507234843 13 1 0.0 1.6 0.00 0.00 0.00 47 1015.6
20260507234340 13 3 0.0 0.0 0.00 0.00 0.00 48 1015.6
20260507233836 13 340 0.0 1.6 0.00 0.00 0.00 49 1015.6
20260507233334 13 343 0.0 1.6 0.00 0.00 0.00 47 1015.5
20260507232832 13 3 0.0 0.0 0.00 0.00 0.00 45 1015.3
20260507232328 14 21 0.0 3.2 0.00 0.00 0.00 43 1015.5
20260507231825 14 342 0.0 0.0 0.00 0.00 0.00 50 1015.3
20260507231321 15 347 1.6 3.2 0.00 0.00 0.00 45 1015.4
20260507230817 15 352 0.0 4.8 0.00 0.00 0.00 46 1015.4
20260507230315 15 357 9.7 11.3 0.00 0.00 0.00 42 1015.5
20260507225810 15 81 0.0 3.2 0.00 0.00 0.00 42 1015.4
20260507225306 15 358 0.0 1.6 0.00 0.00 0.00 43 1015.4
20260507224802 15 14 0.0 4.8 0.00 0.00 0.00 46 1015.4
20260507224259 15 345 0.0 1.6 0.00 0.00 0.00 46 1015.3
20260507223755 15 28 0.0 1.6 0.00 0.00 0.00 43 1015.4
20260507223252 15 12 4.8 9.7 0.00 0.00 0.00 41 1015.3
20260507222749 15 286 1.6 9.7 0.00 0.00 0.00 42 1015.2
20260507222245 15 343 1.6 3.2 0.00 0.00 0.00 43 1015.1
20260507221742 16 356 4.8 12.9 0.00 0.00 0.00 40 1015.2
20260507221238 16 346 3.2 3.2 0.00 0.00 0.00 41 1015.0
20260507220735 16 11 8.0 11.3 0.00 0.00 0.00 39 1015.0
20260507220233 16 325 1.6 4.8 0.00 0.00 0.00 38 1015.1
20260507215729 16 51 3.2 4.8 0.00 0.00 0.00 41 1014.9
20260507215227 16 111 1.6 4.8 0.00 0.00 0.00 38 1014.9
20260507214723 17 329 0.0 4.8 0.00 0.00 0.00 39 1014.9
20260507214221 17 166 3.2 4.8 0.00 0.00 0.00 36 1014.7
20260507213716 17 319 0.0 3.2 0.00 0.00 0.00 38 1014.6
20260507213213 17 289 0.0 4.8 0.00 0.00 0.00 38 1014.5
20260507212709 17 335 3.2 3.2 0.00 0.00 0.00 37 1014.7
20260507212206 17 66 1.6 3.2 0.00 0.00 0.00 37 1014.5
20260507211703 17 355 1.6 3.2 0.00 0.00 0.00 42 1014.4
20260507211158 17 294 1.6 4.8 0.00 0.00 0.00 37 1014.4
20260507210656 17 28 0.0 3.2 0.00 0.00 0.00 36 1014.5
20260507210153 17 342 3.2 4.8 0.00 0.00 0.00 35 1014.5
20260507205649 17 264 1.6 6.4 0.00 0.00 0.00 37 1014.7
20260507205146 17 9 0.0 3.2 0.00 0.00 0.00 36 1014.4
20260507204642 17 356 1.6 12.9 0.00 0.00 0.00 35 1014.2
20260507204140 17 346 1.6 4.8 0.00 0.00 0.00 37 1014.2
20260507203638 17 320 1.6 4.8 0.00 0.00 0.00 34 1014.4
20260507203135 17 201 4.8 6.4 0.00 0.00 0.00 36 1014.4
20260507202631 17 257 3.2 11.3 0.00 0.00 0.00 34 1014.4
20260507202127 17 325 1.6 9.7 0.00 0.00 0.00 35 1014.4
20260507201622 16 238 1.6 6.4 0.00 0.00 0.00 39 1014.3
20260507201119 16 352 3.2 9.7 0.00 0.00 0.00 35 1014.3
20260507200615 17 211 4.8 9.7 0.00 0.00 0.00 31 1014.7
20260507200111 17 27 0.0 3.2 0.00 0.00 0.00 35 1014.5
20260507195609 17 343 3.2 9.7 0.00 0.00 0.00 33 1014.7
20260507195106 17 198 4.8 6.4 0.00 0.00 0.00 37 1014.8
20260507194602 17 336 3.2 6.4 0.00 0.00 0.00 33 1014.4
20260507194058 17 70 1.6 9.7 0.00 0.00 0.00 36 1014.5
20260507193555 17 342 4.8 4.8 0.00 0.00 0.00 34 1014.5
20260507193052 18 341 0.0 4.8 0.00 0.00 0.00 32 1014.6
20260507192548 18 3 0.0 3.2 0.00 0.00 0.00 36 1014.8
20260507192045 18 3 3.2 4.8 0.00 0.00 0.00 37 1014.5
20260507191540 17 355 0.0 3.2 0.00 0.00 0.00 39 1014.5
20260507191038 17 288 3.2 4.8 0.00 0.00 0.00 35 1014.6
20260507190535 17 320 1.6 6.4 0.00 0.00 0.00 37 1014.8
20260507190034 17 251 1.6 6.4 0.00 0.00 0.00 38 1014.8
20260507185532 17 324 3.2 4.8 0.00 0.00 0.00 36 1014.8
20260507185028 17 305 1.6 4.8 0.00 0.00 0.00 43 1014.8
20260507184526 17 62 1.6 3.2 0.00 0.00 0.00 39 1014.9
20260507184024 18 263 1.6 1.6 0.00 0.00 0.00 38 1015.1
20260507183519 17 45 3.2 6.4 0.00 0.00 0.00 38 1014.9
20260507183017 16 164 1.6 3.2 0.00 0.00 0.00 40 1014.9
20260507182513 17 324 0.0 3.2 0.00 0.00 0.00 40 1015.0
20260507182009 17 164 1.6 3.2 0.00 0.00 0.00 37 1014.8
20260507181506 17 39 3.2 9.7 0.00 0.00 0.00 36 1014.8
20260507181002 16 327 0.0 3.2 0.00 0.00 0.00 42 1015.3
20260507180459 18 247 0.0 4.8 0.00 0.00 0.00 37 1015.0
20260507175955 16 146 4.8 4.8 0.00 0.00 0.00 39 1015.0
20260507175452 17 122 4.8 9.7 0.00 0.00 0.00 38 1015.2
20260507174949 17 49 1.6 3.2 0.00 0.00 0.00 39 1015.1
20260507174446 17 21 3.2 3.2 0.00 0.00 0.00 38 1015.0
20260507173944 18 339 1.6 6.4 0.00 0.00 0.00 38 1015.3
20260507173441 18 206 6.4 6.4 0.00 0.00 0.00 40 1015.2
20260507172938 17 329 1.6 3.2 0.00 0.00 0.00 38 1015.2
20260507172434 17 255 1.6 9.7 0.00 0.00 0.00 45 1015.4
20260507171931 17 211 1.6 11.3 0.00 0.00 0.00 38 1015.4
20260507171426 18 357 0.0 3.2 0.00 0.00 0.00 41 1015.5
20260507170924 17 352 0.0 3.2 0.00 0.00 0.00 37 1015.6
20260507170420 17 353 1.6 4.8 0.00 0.00 0.00 40 1015.4
20260507165917 17 235 6.4 9.7 0.00 0.00 0.00 41 1015.5
20260507165413 17 39 4.8 4.8 0.00 0.00 0.00 39 1015.6
20260507164909 17 27 0.0 12.9 0.00 0.00 0.00 40 1015.5
20260507164406 17 350 1.6 1.6 0.00 0.00 0.00 40 1015.6
20260507163903 17 21 3.2 3.2 0.00 0.00 0.00 39 1015.6
20260507163401 15 36 1.6 4.8 0.00 0.00 0.00 42 1015.8
20260507162857 17 222 6.4 9.7 0.00 0.00 0.00 40 1015.8
20260507162352 17 301 0.0 1.6 0.00 0.00 0.00 43 1015.6
20260507161850 17 327 0.0 3.2 0.00 0.00 0.00 41 1015.6
20260507161346 17 357 0.0 4.8 0.00 0.00 0.00 40 1016.1
20260507160843 16 196 6.4 9.7 0.00 0.00 0.00 39 1016.1
20260507160338 16 359 3.2 4.8 0.00 0.00 0.00 40 1016.1
20260507155835 16 266 3.2 3.2 0.00 0.00 0.00 43 1015.8
20260507155331 16 316 1.6 4.8 0.00 0.00 0.00 42 1015.8
20260507154828 16 341 0.0 3.2 0.00 0.00 0.00 50 1015.9
20260507154325 16 317 0.0 4.8 0.00 0.00 0.00 45 1015.9
20260507153822 16 11 0.0 6.4 0.00 0.00 0.00 39 1015.8
20260507153318 15 41 3.2 3.2 0.00 0.00 0.00 45 1015.9
20260507152815 15 227 3.2 4.8 0.00 0.00 0.00 47 1015.8
20260507152311 15 227 3.2 3.2 0.00 0.00 0.00 43 1016.0
20260507151807 15 195 4.8 4.8 0.00 0.00 0.00 46 1015.9
20260507151303 15 26 1.6 6.4 0.00 0.00 0.00 46 1015.8
20260507150801 15 23 1.6 4.8 0.00 0.00 0.00 44 1015.8
20260507150257 14 114 6.4 6.4 0.00 0.00 0.00 43 1016.0
20260507145753 14 321 3.2 3.2 0.00 0.00 0.00 44 1016.0
20260507145250 15 179 3.2 4.8 0.00 0.00 0.00 42 1016.2
20260507144747 14 269 1.6 4.8 0.00 0.00 0.00 53 1016.0
20260507144244 14 339 0.0 3.2 0.00 0.00 0.00 54 1016.2
20260507143741 14 355 1.6 3.2 0.00 0.00 0.00 46 1016.2
20260507143238 14 17 0.0 3.2 0.00 0.00 0.00 48 1016.1
20260507142734 13 351 0.0 1.6 0.00 0.00 0.00 51 1016.4
20260507142231 13 33 0.0 4.8 0.00 0.00 0.00 47 1016.1
20260507141727 13 7 1.6 3.2 0.00 0.00 0.00 47 1016.4
20260507141224 13 62 0.0 1.6 0.00 0.00 0.00 52 1016.3
20260507140720 13 281 0.0 1.6 0.00 0.00 0.00 53 1016.4
20260507140218 13 321 1.6 3.2 0.00 0.00 0.00 56 1016.6
20260507135715 12 304 4.8 9.7 0.00 0.00 0.00 52 1016.5
20260507135212 12 327 1.6 3.2 0.00 0.00 0.00 55 1016.6
20260507134708 12 210 1.6 9.7 0.00 0.00 0.00 64 1016.5
20260507134205 12 10 0.0 0.0 0.00 0.00 0.00 65 1016.6
20260507133701 12 15 0.0 0.0 0.00 0.00 0.00 62 1016.8
20260507133158 11 20 0.0 0.0 0.00 0.00 0.00 60 1017.1
20260507132655 11 313 1.6 3.2 0.00 0.00 0.00 69 1017.0
20260507132151 11 357 0.0 0.0 0.00 0.00 0.00 70 1017.0
20260507131648 10 3 0.0 3.2 0.00 0.00 0.00 71 1016.8
20260507131146 10 6 0.0 0.0 0.00 0.00 0.00 76 1017.0
20260507130642 10 6 0.0 3.2 0.00 0.00 0.00 80 1017.0
20260507130140 8 7 0.0 0.0 0.00 0.00 0.00 83 1017.0
20260507125639 8 7 0.0 0.0 0.00 0.00 0.00 87 1016.8
20260507125136 8 3 0.0 0.0 0.00 0.00 0.00 90 1017.1
20260507124632 7 13 0.0 0.0 0.00 0.00 0.00 94 1017.0
20260507124130 7 13 0.0 0.0 0.00 0.00 0.00 96 1017.3
20260507123628 6 19 0.0 0.0 0.00 0.00 0.00 97 1017.3
20260507123125 6 19 0.0 0.0 0.00 0.00 0.00 98 1017.3
20260507122620 6 19 0.0 0.0 0.00 0.00 0.00 98 1017.1
20260507122116 6 26 0.0 0.0 0.00 0.00 0.00 98 1017.1
20260507121612 5 22 0.0 0.0 0.00 0.00 0.00 99 1017.2
20260507121108 5 24 0.0 0.0 0.00 0.00 0.00 99 1017.2
20260507120604 5 8 0.0 0.0 0.00 0.00 0.00 99 1017.4
20260507115557 4 8 0.0 0.0 0.00 0.00 0.00 99 1017.1
20260507115053 4 8 0.0 0.0 0.00 0.00 0.00 99 1017.0
20260507114549 3 8 0.0 0.0 0.00 0.00 0.00 99 1017.0
20260507114047 3 8 0.0 0.0 0.00 0.00 0.00 99 1017.0
20260507113543 3 9 0.0 0.0 0.00 0.00 0.00 99 1017.1
20260507113041 3 8 0.0 0.0 0.00 0.00 0.00 99 1017.0
20260507112538 3 4 0.0 0.0 0.00 0.00 0.00 99 1016.7
20260507112035 3 4 0.0 0.0 0.00 0.00 0.00 99 1016.8